Perry Municipal Airport
Sunday 3:15 PM
Temperature69° (69°/58°)
Dew Point48°
Relative Humidity47
%
Visibility10
mi
Pressure1023.4
mb
Wind DirectionSSE
150°
Wind Speed14
mph
Precipitation Today0.00"

Last 30 Observations

Time PresWx Temp DP Feels RH% Vsby Pressure Ceiling Direction Speed 1h Precip
2:55 PM 69° 48° 48
%
10
mi
1023.7
mb
6,500
ft
S
170°
13
mph
0.00"
2:35 PM 69° 48° 48
%
10
mi
1024.1
mb
6,500
ft
SSE
160°
15
mph
0.00"
2:15 PM 69° 49° 50
%
10
mi
1024.4
mb
6,000
ft
SSE
160°
13
mph
0.00"
1:55 PM 68° 50° 53
%
10
mi
1024.7
mb
7,500
ft
SSE
150°
13
mph
0.00"
1:35 PM 68° 50° 52
%
10
mi
1025.1
mb
7,500
ft
SE
140°
10
mph
0.00"
1:15 PM 68° 49° 50
%
10
mi
1025.4
mb
6,000
ft
SSE
150°
9
mph
0.00"
12:55 PM 68° 49° 50
%
10
mi
1025.4
mb
6,000
ft
SSE
150°
11
mph
0.00"
12:35 PM 68° 49° 49
%
10
mi
1025.4
mb
6,000
ft
SSE
150°
13
mph
0.00"
12:15 PM 68° 48° 49
%
10
mi
1025.4
mb
6,000
ft
SE
140°
11
mph
0.00"
11:55 AM 67° 48° 50
%
10
mi
1025.7
mb
6,000
ft
SE
140°
10
mph
0.00"
11:35 AM 67° 48° 50
%
10
mi
1025.7
mb
6,000
ft
SSE
160°
11
mph
0.00"
11:15 AM 67° 47° 49
%
10
mi
1025.7
mb
7,000
ft
SSE
150°
14
mph
0.00"
10:55 AM 67° 48° 51
%
10
mi
1025.7
mb
7,000
ft
SE
140°
13
mph
0.00"
10:35 AM 67° 48° 49
%
10
mi
1025.7
mb
9,500
ft
SE
140°
13
mph
0.00"
10:15 AM 67° 48° 51
%
10
mi
1025.7
mb
7,000
ft
SSE
150°
13
mph
0.00"
9:55 AM 67° 47° 49
%
10
mi
1026.1
mb
7,000
ft
SE
130°
13
mph
0.00"
9:35 AM 67° 49° 51
%
10
mi
1026.1
mb
SE
140°
13
mph
0.00"
9:15 AM 67° 50° 54
%
10
mi
1025.7
mb
11,000
ft
SE
140°
13
mph
0.00"
8:55 AM 66° 51° 60
%
10
mi
1025.7
mb
11,000
ft
SE
130°
13
mph
0.00"
8:35 AM 64° 53° 69
%
10
mi
1025.7
mb
7,000
ft
SE
130°
10
mph
0.00"
8:15 AM 62° 54° 75
%
10
mi
1025.7
mb
7,000
ft
SE
130°
9
mph
0.00"
7:55 AM 61° 55° 82
%
10
mi
1026.1
mb
7,000
ft
ESE
120°
7
mph
0.00"
7:35 AM 60° 55° 83
%
10
mi
1025.7
mb
7,000
ft
ESE
110°
9
mph
0.00"
7:15 AM 60° 55° 83
%
10
mi
1025.7
mb
7,000
ft
E
90°
5
mph
0.00"
6:55 AM 60° 55° 83
%
10
mi
1025.1
mb
7,000
ft
SE
130°
5
mph
0.00"
6:35 AM 60° 55° 86
%
10
mi
1024.7
mb
7,000
ft
Calm 0.00"
6:15 AM 59° 55° 84
%
10
mi
1024.7
mb
7,000
ft
Calm 0.00"
5:35 AM 58° 54° 87
%
10
mi
1024.1
mb
8,000
ft
ESE
120°
5
mph
0.00"
4:55 AM 58° 54° 87
%
10
mi
1024.1
mb
12,000
ft
Calm 0.00"
4:35 AM 59° 54° 84
%
10
mi
1024.1
mb
12,000
ft
Calm 0.00"